TimeEET,TemperatureF,Dew PointF,Humidity,Sea Level PressureIn,VisibilityMPH,Wind Direction,Wind SpeedMPH,Gust SpeedMPH,PrecipitationIn,Events,Conditions,WindDirDegrees,DateUTC
12:00 AM,53.6,39.2,58,30.12,-9999.0,Calm,Calm,-,N/A,,Clear,0,2013-12-22 22:00:00
1:00 AM,53.6,42.8,67,30.12,-9999.0,Calm,Calm,-,N/A,,Clear,0,2013-12-22 23:00:00
2:00 AM,50,37,50,30.14,6,ESE,2.3,,,,,120,2013-12-23 00:00:00
2:00 AM,50.0,37.4,62,30.12,-9999.0,ESE,2.3,-,N/A,,Clear,120,2013-12-23 00:00:00
3:00 AM,50.0,37.4,62,30.12,-9999.0,Calm,Calm,-,N/A,,Clear,0,2013-12-23 01:00:00
4:00 AM,46.4,37.4,71,30.12,-9999.0,Calm,Calm,-,N/A,,Clear,0,2013-12-23 02:00:00
5:00 AM,45,34,54,30.15,6,Calm,Calm,,,,,,2013-12-23 03:00:00
5:00 AM,44.6,33.8,66,30.12,-9999.0,Calm,Calm,-,N/A,,Clear,0,2013-12-23 03:00:00
6:00 AM,46.4,33.8,62,30.15,-9999.0,Calm,Calm,-,N/A,,Clear,0,2013-12-23 04:00:00
7:00 AM,44.6,33.8,66,30.15,-9999.0,Calm,Calm,-,N/A,,Clear,0,2013-12-23 05:00:00
8:00 AM,53,34,37,30.17,6,East,3.5,,,,,80,2013-12-23 06:00:00
8:00 AM,53.6,33.8,47,30.15,-9999.0,East,3.5,-,N/A,,Clear,80,2013-12-23 06:00:00
9:00 AM,57.2,35.6,44,30.15,-9999.0,ENE,2.3,-,N/A,,Clear,70,2013-12-23 07:00:00
10:00 AM,62.6,42.8,48,30.18,-9999.0,ENE,2.3,-,N/A,,Clear,60,2013-12-23 08:00:00
11:00 AM,68,47,35,30.15,6,NE,5.8,,,,,40,2013-12-23 09:00:00
11:00 AM,68.0,46.4,46,30.15,-9999.0,NE,5.8,-,N/A,,Clear,40,2013-12-23 09:00:00
12:00 PM,71.6,44.6,38,30.12,-9999.0,NE,6.9,-,N/A,,Clear,50,2013-12-23 10:00:00
1:00 PM,71.6,44.6,38,30.09,-9999.0,NNE,5.8,-,N/A,,Clear,30,2013-12-23 11:00:00
2:00 PM,74,44,24,30.06,6,North,3.5,,,,,0,2013-12-23 12:00:00
2:00 PM,75.2,44.6,34,30.06,-9999.0,North,3.5,-,N/A,,Clear,360,2013-12-23 12:00:00
3:00 PM,75.2,44.6,34,30.06,-9999.0,North,4.6,-,N/A,,Clear,360,2013-12-23 13:00:00
4:00 PM,75.2,42.8,31,30.06,-9999.0,North,4.6,-,N/A,,Clear,360,2013-12-23 14:00:00
5:00 PM,72,46,28,30.09,6,North,2.3,,,,,0,2013-12-23 15:00:00
5:00 PM,71.6,46.4,41,30.09,-9999.0,North,2.3,-,N/A,,Clear,360,2013-12-23 15:00:00
6:00 PM,71.6,41.0,33,30.09,-9999.0,ENE,8.1,-,N/A,,Clear,60,2013-12-23 16:00:00
7:00 PM,68.0,42.8,40,30.12,-9999.0,East,9.2,-,N/A,,Clear,80,2013-12-23 17:00:00
8:00 PM,65,40,29,30.14,6,North,4.6,,,,,0,2013-12-23 18:00:00
8:00 PM,64.4,41.0,42,30.12,-9999.0,North,4.6,-,N/A,,Clear,360,2013-12-23 18:00:00
9:00 PM,62.6,41.0,45,30.15,-9999.0,NE,3.5,-,N/A,,Clear,40,2013-12-23 19:00:00
10:00 PM,57.2,39.2,51,30.15,-9999.0,Calm,Calm,-,N/A,,Clear,0,2013-12-23 20:00:00
11:00 PM,55,42,50,30.16,6,Calm,Calm,,,,,,2013-12-23 21:00:00
11:00 PM,55.4,41.0,58,30.15,-9999.0,Calm,Calm,-,N/A,,Clear,0,2013-12-23 21:00:00